| time (UTC) | temp F | wind direction | speed knots | gust knots | rain 1hr in | rain 24hr in | rain mn in | humidity % | barometer mb |
| 20260506092056 | 51 | 257 | 2.6 | 8.7 | 0.00 | 0.00 | 0.00 | 90 | 1008.3 |
| 20260506091551 | 51 | 221 | 2.6 | 7.8 | 0.00 | 0.00 | 0.00 | 91 | 1008.3 |
| 20260506091044 | 51 | 216 | 2.6 | 9.6 | 0.00 | 0.00 | 0.00 | 91 | 1008.2 |
| 20260506090803 | 51 | 207 | 3.5 | 9.6 | 0.00 | 0.00 | 0.00 | 91 | 1008.3 |
| 20260506090033 | 51 | 205 | 3.5 | 7.8 | 0.00 | 0.00 | 0.00 | 91 | 1008.3 |
| 20260506085526 | 51 | 166 | 2.6 | 7.8 | 0.00 | 0.00 | 0.00 | 90 | 1008.3 |
| 20260506085021 | 51 | 171 | 2.6 | 7.8 | 0.00 | 0.00 | 0.00 | 90 | 1008.2 |
| 20260506084739 | 51 | 217 | 2.6 | 6.1 | 0.00 | 0.00 | 0.00 | 90 | 1008.2 |
| 20260506084008 | 51 | 180 | 3.5 | 12.2 | 0.00 | 0.00 | 0.00 | 90 | 1008.2 |
| 20260506083502 | 51 | 178 | 3.5 | 12.2 | 0.00 | 0.00 | 0.00 | 90 | 1008.1 |
| 20260506082956 | 51 | 190 | 2.6 | 8.7 | 0.00 | 0.00 | 0.00 | 90 | 1008.2 |
| 20260506082450 | 51 | 223 | 2.6 | 8.7 | 0.00 | 0.00 | 0.00 | 90 | 1008.1 |
| 20260506081944 | 51 | 182 | 2.6 | 7.8 | 0.00 | 0.00 | 0.00 | 89 | 1008.2 |
| 20260506081438 | 51 | 176 | 2.6 | 7.8 | 0.00 | 0.00 | 0.00 | 90 | 1008.3 |
| 20260506080932 | 51 | 217 | 2.6 | 7.0 | 0.00 | 0.00 | 0.00 | 89 | 1008.2 |
| 20260506080427 | 51 | 199 | 1.7 | 6.1 | 0.00 | 0.00 | 0.00 | 89 | 1008.3 |
| 20260506072844 | 51 | 208 | 2.6 | 9.6 | 0.00 | 0.00 | 0.00 | 88 | 1008.0 |
| 20260506072338 | 51 | 197 | 3.5 | 9.6 | 0.00 | 0.00 | 0.00 | 88 | 1007.9 |
| 20260506072059 | 51 | 193 | 2.6 | 9.6 | 0.00 | 0.00 | 0.00 | 88 | 1007.9 |
| 20260506071553 | 51 | 167 | 2.6 | 11.3 | 0.00 | 0.00 | 0.00 | 88 | 1007.9 |
| 20260506071308 | 51 | 233 | 3.5 | 11.3 | 0.00 | 0.00 | 0.00 | 88 | 1007.8 |
| 20260506070322 | 51 | 200 | 2.6 | 8.7 | 0.00 | 0.00 | 0.00 | 88 | 1007.7 |
| 20260506062319 | 52 | 221 | 4.3 | 11.3 | 0.00 | 0.00 | 0.00 | 87 | 1007.7 |
| 20260506062038 | 52 | 191 | 4.3 | 10.4 | 0.00 | 0.00 | 0.00 | 87 | 1007.7 |
| 20260506061318 | 52 | 195 | 4.3 | 11.3 | 0.00 | 0.00 | 0.00 | 87 | 1007.6 |
| 20260506060817 | 51 | 168 | 4.3 | 11.3 | 0.00 | 0.00 | 0.00 | 87 | 1007.6 |
| 20260506060316 | 51 | 196 | 2.6 | 9.6 | 0.00 | 0.00 | 0.00 | 87 | 1007.5 |
| 20260506051252 | 51 | 210 | 3.5 | 10.4 | 0.00 | 0.00 | 0.00 | 87 | 1007.7 |
| 20260506050751 | 51 | 167 | 2.6 | 8.7 | 0.00 | 0.00 | 0.00 | 87 | 1007.7 |
| 20260506050250 | 51 | 246 | 2.6 | 12.2 | 0.00 | 0.00 | 0.00 | 87 | 1007.7 |
| 20260506044750 | 52 | 241 | 4.3 | 10.4 | 0.00 | 0.00 | 0.00 | 86 | 1007.9 |
| 20260506044521 | 52 | 193 | 3.5 | 12.2 | 0.00 | 0.00 | 0.00 | 86 | 1007.8 |
| 20260506043750 | 52 | 210 | 4.3 | 12.2 | 0.00 | 0.00 | 0.00 | 85 | 1007.7 |
| 20260506043736 | 52 | 253 | 3.5 | 10.4 | 0.00 | 0.00 | 0.00 | 85 | 1007.7 |
| 20260506042748 | 52 | 234 | 4.3 | 10.4 | 0.00 | 0.00 | 0.00 | 86 | 1007.7 |
| 20260506042246 | 52 | 200 | 5.2 | 13.9 | 0.00 | 0.00 | 0.00 | 86 | 1007.6 |
| 20260506041746 | 52 | 210 | 4.3 | 13.9 | 0.00 | 0.00 | 0.00 | 86 | 1007.6 |
| 20260506041247 | 52 | 181 | 3.5 | 13.0 | 0.00 | 0.00 | 0.00 | 85 | 1007.6 |
| 20260506040745 | 53 | 175 | 2.6 | 8.7 | 0.00 | 0.00 | 0.00 | 86 | 1007.6 |
| 20260506040244 | 53 | 192 | 3.5 | 8.7 | 0.00 | 0.00 | 0.00 | 86 | 1007.5 |
| 20260506040004 | 53 | 231 | 2.6 | 8.7 | 0.00 | 0.00 | 0.00 | 86 | 1007.6 |
| 20260506035504 | 53 | 209 | 2.6 | 10.4 | 0.00 | 0.00 | 0.00 | 86 | 1007.6 |
| 20260506034739 | 53 | 180 | 2.6 | 10.4 | 0.00 | 0.00 | 0.00 | 86 | 1007.6 |
| 20260506034237 | 53 | 205 | 2.6 | 7.8 | 0.00 | 0.00 | 0.00 | 86 | 1007.5 |
| 20260506033735 | 53 | 177 | 3.5 | 8.7 | 0.00 | 0.00 | 0.00 | 86 | 1007.5 |
| 20260506033236 | 53 | 187 | 4.3 | 9.6 | 0.00 | 0.00 | 0.00 | 85 | 1007.6 |
| 20260506032734 | 53 | 168 | 3.5 | 9.6 | 0.00 | 0.00 | 0.00 | 85 | 1007.6 |
| 20260506032234 | 53 | 203 | 2.6 | 7.8 | 0.00 | 0.00 | 0.00 | 85 | 1007.5 |
| 20260506031952 | 53 | 161 | 1.7 | 6.1 | 0.00 | 0.00 | 0.00 | 85 | 1007.4 |
| 20260506031232 | 53 | 166 | 1.7 | 7.0 | 0.00 | 0.00 | 0.00 | 85 | 1007.4 |
| 20260506030955 | 53 | 183 | 1.7 | 7.0 | 0.00 | 0.00 | 0.00 | 85 | 1007.5 |
| 20260506030230 | 53 | 177 | 1.7 | 6.1 | 0.00 | 0.00 | 0.00 | 85 | 1007.7 |
| 20260506025730 | 53 | 158 | 1.7 | 6.1 | 0.00 | 0.00 | 0.00 | 85 | 1007.7 |
| 20260506025230 | 53 | 175 | 1.7 | 5.2 | 0.00 | 0.00 | 0.00 | 84 | 1007.8 |
| 20260506024731 | 53 | 177 | 2.6 | 7.0 | 0.00 | 0.00 | 0.00 | 84 | 1007.6 |
| 20260506024231 | 53 | 183 | 2.6 | 9.6 | 0.00 | 0.00 | 0.00 | 83 | 1007.7 |
| 20260506023730 | 54 | 219 | 2.6 | 9.6 | 0.00 | 0.00 | 0.00 | 83 | 1007.7 |
| 20260506023230 | 54 | 230 | 2.6 | 6.1 | 0.00 | 0.00 | 0.00 | 82 | 1007.5 |
| 20260506022728 | 55 | 199 | 2.6 | 6.1 | 0.00 | 0.00 | 0.00 | 81 | 1007.6 |
| 20260506022229 | 55 | 165 | 2.6 | 6.1 | 0.00 | 0.00 | 0.00 | 81 | 1007.7 |
| 20260506021722 | 55 | 201 | 2.6 | 6.1 | 0.00 | 0.00 | 0.00 | 80 | 1007.7 |
| 20260506021436 | 56 | 196 | 2.6 | 6.1 | 0.00 | 0.00 | 0.00 | 79 | 1007.7 |
| 20260506020712 | 56 | 135 | 3.5 | 7.8 | 0.00 | 0.00 | 0.00 | 79 | 1007.8 |
| 20260506020432 | 57 | 185 | 3.5 | 8.7 | 0.00 | 0.00 | 0.00 | 78 | 1007.7 |
| 20260506015658 | 57 | 205 | 3.5 | 8.7 | 0.00 | 0.00 | 0.00 | 78 | 1007.8 |
| 20260506015151 | 57 | 180 | 2.6 | 7.8 | 0.00 | 0.00 | 0.00 | 78 | 1007.8 |
| 20260506014645 | 57 | 186 | 2.6 | 9.6 | 0.00 | 0.00 | 0.00 | 78 | 1007.9 |
| 20260506014139 | 57 | 186 | 1.7 | 9.6 | 0.00 | 0.00 | 0.00 | 78 | 1007.8 |
| 20260506013632 | 57 | 186 | 0.9 | 5.2 | 0.00 | 0.00 | 0.00 | 78 | 1007.8 |
| 20260506013126 | 57 | 181 | 0.9 | 5.2 | 0.00 | 0.00 | 0.00 | 78 | 1007.8 |
| 20260506012621 | 57 | 221 | 0.0 | 5.2 | 0.00 | 0.00 | 0.00 | 78 | 1007.7 |
| 20260506012120 | 57 | 168 | 1.7 | 6.1 | 0.00 | 0.00 | 0.00 | 77 | 1007.6 |
| 20260506011608 | 57 | 168 | 3.5 | 8.7 | 0.00 | 0.00 | 0.00 | 77 | 1007.5 |
| 20260506011550 | 57 | 135 | 2.6 | 8.7 | 0.00 | 0.00 | 0.00 | 76 | 1007.5 |
| 20260506010606 | 58 | 176 | 3.5 | 10.4 | 0.00 | 0.00 | 0.00 | 76 | 1007.4 |
| 20260506010103 | 58 | 166 | 3.5 | 10.4 | 0.00 | 0.00 | 0.00 | 76 | 1007.4 |
| 20260506005602 | 58 | 207 | 2.6 | 7.0 | 0.00 | 0.00 | 0.00 | 75 | 1007.3 |
| 20260506005321 | 59 | 157 | 2.6 | 7.0 | 0.00 | 0.00 | 0.00 | 74 | 1007.4 |
| 20260506004602 | 59 | 244 | 2.6 | 7.0 | 0.00 | 0.00 | 0.00 | 74 | 1007.4 |
| 20260506004102 | 59 | 261 | 2.6 | 9.6 | 0.00 | 0.00 | 0.00 | 73 | 1007.4 |
| 20260506003600 | 60 | 242 | 2.6 | 11.3 | 0.00 | 0.00 | 0.00 | 73 | 1007.3 |
| 20260506003100 | 60 | 178 | 2.6 | 11.3 | 0.00 | 0.00 | 0.00 | 72 | 1007.3 |
| 20260506002600 | 60 | 224 | 2.6 | 9.6 | 0.00 | 0.00 | 0.00 | 72 | 1007.1 |
| 20260506002100 | 60 | 175 | 2.6 | 9.6 | 0.00 | 0.00 | 0.00 | 72 | 1006.9 |
| 20260506001600 | 61 | 171 | 3.5 | 9.6 | 0.00 | 0.00 | 0.00 | 71 | 1006.9 |
| 20260506001058 | 61 | 150 | 4.3 | 10.4 | 0.00 | 0.00 | 0.00 | 70 | 1006.7 |
| 20260506000557 | 62 | 159 | 4.3 | 10.4 | 0.00 | 0.00 | 0.00 | 70 | 1006.4 |
| 20260506000100 | 62 | 209 | 3.5 | 8.7 | 0.00 | 0.00 | 0.00 | 69 | 1006.2 |
| 20260505235558 | 63 | 197 | 3.5 | 11.3 | 0.00 | 0.00 | 0.00 | 68 | 1006.1 |
| 20260505235058 | 63 | 186 | 4.3 | 12.2 | 0.00 | 0.00 | 0.00 | 67 | 1006.1 |
| 20260505234559 | 64 | 198 | 2.6 | 12.2 | 0.00 | 0.00 | 0.00 | 68 | 1006.2 |
| 20260505234052 | 64 | 171 | 0.0 | 4.3 | 0.00 | 0.00 | 0.00 | 69 | 1006.2 |
| 20260505233806 | 64 | 260 | 0.9 | 7.8 | 0.00 | 0.00 | 0.00 | 69 | 1006.0 |
| 20260505233039 | 64 | 260 | 3.5 | 17.4 | 0.00 | 0.00 | 0.00 | 69 | 1005.9 |
| 20260505232533 | 63 | 236 | 5.2 | 17.4 | 0.00 | 0.00 | 0.00 | 71 | 1006.2 |
| 20260505232228 | 59 | 252 | 7.8 | 21.7 | 0.00 | 0.00 | 0.00 | 77 | 1005.8 |
| 20260505232114 | 61 | 274 | 7.0 | 21.7 | 0.00 | 0.00 | 0.00 | 73 | 1005.9 |
| 20260505231015 | 56 | 19 | 7.0 | 14.8 | 0.00 | 0.00 | 0.00 | 80 | 1006.6 |
| 20260505230509 | 55 | 236 | 6.1 | 13.0 | 0.00 | 0.00 | 0.00 | 80 | 1005.5 |
| 20260505230004 | 55 | 192 | 5.2 | 13.9 | 0.00 | 0.00 | 0.00 | 80 | 1004.9 |
| 20260505225718 | 55 | 194 | 5.2 | 18.2 | 0.00 | 0.00 | 0.00 | 80 | 1004.6 |
| 20260505224951 | 55 | 155 | 6.1 | 17.4 | 0.00 | 0.00 | 0.00 | 80 | 1004.5 |
| 20260505224445 | 55 | 211 | 6.1 | 18.2 | 0.00 | 0.00 | 0.00 | 80 | 1004.4 |
| 20260505223939 | 56 | 181 | 5.2 | 17.4 | 0.00 | 0.00 | 0.00 | 80 | 1004.3 |
| 20260505223433 | 56 | 235 | 6.1 | 13.0 | 0.00 | 0.00 | 0.00 | 79 | 1004.3 |
| 20260505222927 | 56 | 203 | 6.1 | 16.5 | 0.00 | 0.00 | 0.00 | 79 | 1004.2 |
| 20260505222421 | 57 | 212 | 6.1 | 16.5 | 0.00 | 0.00 | 0.00 | 78 | 1004.2 |
| 20260505221916 | 57 | 273 | 6.1 | 15.6 | 0.00 | 0.00 | 0.00 | 78 | 1004.2 |
| 20260505221634 | 57 | 261 | 5.2 | 15.6 | 0.00 | 0.00 | 0.00 | 78 | 1004.1 |
| 20260505220903 | 57 | 190 | 6.1 | 17.4 | 0.00 | 0.00 | 0.00 | 78 | 1003.8 |
| 20260505220844 | 57 | 144 | 7.0 | 17.4 | 0.00 | 0.00 | 0.00 | 78 | 1003.8 |
| 20260505215852 | 57 | 173 | 7.0 | 16.5 | 0.00 | 0.00 | 0.00 | 78 | 1003.9 |
| 20260505215345 | 57 | 242 | 6.1 | 19.1 | 0.00 | 0.00 | 0.00 | 78 | 1003.9 |
| 20260505214841 | 57 | 207 | 5.2 | 19.1 | 0.00 | 0.00 | 0.00 | 78 | 1004.0 |
| 20260505214333 | 57 | 277 | 6.1 | 13.9 | 0.00 | 0.00 | 0.00 | 78 | 1003.9 |
| 20260505213828 | 58 | 248 | 5.2 | 13.9 | 0.00 | 0.00 | 0.00 | 77 | 1004.1 |
| 20260505213321 | 58 | 220 | 5.2 | 13.9 | 0.00 | 0.00 | 0.00 | 77 | 1003.9 |
| 20260505212815 | 58 | 260 | 5.2 | 13.0 | 0.00 | 0.00 | 0.00 | 77 | 1003.7 |
| 20260505212528 | 58 | 215 | 5.2 | 13.0 | 0.00 | 0.00 | 0.00 | 78 | 1003.7 |
| 20260505211803 | 57 | 228 | 5.2 | 19.1 | 0.00 | 0.00 | 0.00 | 78 | 1003.6 |
| 20260505211258 | 57 | 192 | 7.0 | 19.1 | 0.00 | 0.00 | 0.00 | 78 | 1003.7 |
| 20260505210752 | 58 | 202 | 7.8 | 20.9 | 0.00 | 0.00 | 0.00 | 77 | 1003.8 |
| 20260505210245 | 58 | 175 | 7.0 | 20.9 | 0.00 | 0.00 | 0.00 | 77 | 1003.7 |
| 20260505205740 | 58 | 223 | 7.0 | 17.4 | 0.00 | 0.00 | 0.00 | 77 | 1003.6 |
| 20260505205455 | 59 | 192 | 7.0 | 17.4 | 0.00 | 0.00 | 0.00 | 76 | 1003.5 |
| 20260505204727 | 59 | 176 | 6.1 | 15.6 | 0.00 | 0.00 | 0.00 | 75 | 1003.6 |
| 20260505204222 | 60 | 201 | 5.2 | 15.6 | 0.00 | 0.00 | 0.00 | 75 | 1003.8 |
| 20260505203715 | 60 | 219 | 5.2 | 14.8 | 0.00 | 0.00 | 0.00 | 75 | 1003.8 |
| 20260505203209 | 60 | 208 | 5.2 | 14.8 | 0.00 | 0.00 | 0.00 | 74 | 1003.7 |
| 20260505202703 | 60 | 245 | 5.2 | 13.9 | 0.00 | 0.00 | 0.00 | 75 | 1003.9 |
| 20260505202158 | 60 | 235 | 4.3 | 14.8 | 0.00 | 0.00 | 0.00 | 76 | 1003.8 |
| 20260505201652 | 60 | 191 | 5.2 | 14.8 | 0.00 | 0.00 | 0.00 | 76 | 1003.7 |
| 20260505201145 | 60 | 250 | 6.1 | 13.9 | 0.00 | 0.00 | 0.00 | 75 | 1003.9 |
| 20260505200903 | 60 | 274 | 6.1 | 17.4 | 0.00 | 0.00 | 0.00 | 74 | 1004.0 |
| 20260505200134 | 60 | 194 | 5.2 | 23.5 | 0.00 | 0.00 | 0.00 | 74 | 1003.9 |
| 20260505195627 | 60 | 200 | 6.1 | 23.5 | 0.00 | 0.00 | 0.00 | 74 | 1004.0 |
| 20260505195349 | 60 | 163 | 5.2 | 13.9 | 0.00 | 0.00 | 0.00 | 75 | 1004.0 |
| 20260505194617 | 60 | 177 | 5.2 | 11.3 | 0.00 | 0.00 | 0.00 | 76 | 1004.2 |
| 20260505194109 | 59 | 192 | 5.2 | 13.9 | 0.00 | 0.00 | 0.00 | 77 | 1004.3 |
| 20260505193605 | 59 | 205 | 7.0 | 13.9 | 0.00 | 0.00 | 0.00 | 77 | 1004.4 |
| 20260505193058 | 59 | 267 | 6.1 | 13.9 | 0.00 | 0.00 | 0.00 | 78 | 1004.5 |
| 20260505192551 | 58 | 266 | 5.2 | 13.0 | 0.00 | 0.00 | 0.00 | 78 | 1004.5 |
| 20260505192046 | 58 | 201 | 5.2 | 17.4 | 0.00 | 0.00 | 0.00 | 78 | 1004.6 |
| 20260505191541 | 58 | 188 | 5.2 | 14.8 | 0.00 | 0.00 | 0.00 | 78 | 1004.8 |
| 20260505191033 | 59 | 178 | 5.2 | 14.8 | 0.00 | 0.00 | 0.00 | 77 | 1004.9 |
| 20260505190746 | 59 | 265 | 6.1 | 13.0 | 0.00 | 0.00 | 0.00 | 77 | 1005.0 |
| 20260505190025 | 59 | 247 | 7.8 | 15.6 | 0.00 | 0.00 | 0.00 | 78 | 1005.1 |
| 20260505185526 | 59 | 248 | 7.8 | 17.4 | 0.00 | 0.00 | 0.00 | 78 | 1005.1 |
| 20260505185246 | 59 | 196 | 7.8 | 20.0 | 0.00 | 0.00 | 0.00 | 78 | 1005.2 |
| 20260505184525 | 59 | 184 | 8.7 | 20.0 | 0.00 | 0.00 | 0.00 | 76 | 1005.3 |
| 20260505184512 | 60 | 196 | 7.8 | 17.4 | 0.00 | 0.00 | 0.00 | 77 | 1005.2 |
| 20260505183525 | 60 | 160 | 7.0 | 16.5 | 0.00 | 0.00 | 0.00 | 77 | 1005.2 |
| 20260505183026 | 59 | 157 | 7.8 | 17.4 | 0.00 | 0.00 | 0.00 | 78 | 1005.2 |
| 20260505182746 | 58 | 169 | 7.8 | 17.4 | 0.00 | 0.00 | 0.00 | 78 | 1005.3 |
| 20260505182027 | 59 | 190 | 7.0 | 15.6 | 0.00 | 0.00 | 0.00 | 77 | 1005.3 |
| 20260505181527 | 58 | 178 | 8.7 | 18.2 | 0.00 | 0.00 | 0.00 | 78 | 1005.2 |
| 20260505181026 | 58 | 184 | 9.6 | 18.2 | 0.00 | 0.00 | 0.00 | 79 | 1005.2 |
| 20260505180526 | 58 | 140 | 9.6 | 18.2 | 0.00 | 0.00 | 0.00 | 80 | 1005.3 |
| 20260505180025 | 57 | 180 | 8.7 | 20.9 | 0.00 | 0.00 | 0.00 | 80 | 1005.2 |
| 20260505175525 | 57 | 223 | 9.6 | 21.7 | 0.00 | 0.00 | 0.00 | 79 | 1005.4 |
| 20260505175026 | 58 | 186 | 8.7 | 21.7 | 0.00 | 0.00 | 0.00 | 77 | 1005.5 |
| 20260505174526 | 59 | 182 | 7.8 | 17.4 | 0.00 | 0.00 | 0.00 | 76 | 1005.6 |
| 20260505174025 | 60 | 171 | 7.0 | 17.4 | 0.00 | 0.00 | 0.00 | 77 | 1005.6 |
| 20260505173519 | 59 | 202 | 7.0 | 15.6 | 0.00 | 0.00 | 0.00 | 79 | 1005.7 |
| 20260505173451 | 58 | 186 | 7.8 | 17.4 | 0.00 | 0.00 | 0.00 | 79 | 1005.7 |
| 20260505172508 | 58 | 202 | 7.8 | 22.6 | 0.00 | 0.00 | 0.00 | 78 | 1005.8 |
| 20260505172001 | 59 | 179 | 7.0 | 22.6 | 0.00 | 0.00 | 0.00 | 75 | 1006.0 |
| 20260505171723 | 60 | 157 | 7.0 | 16.5 | 0.00 | 0.00 | 0.00 | 75 | 1006.0 |
| 20260505170950 | 60 | 192 | 7.0 | 16.5 | 0.00 | 0.00 | 0.00 | 77 | 1006.3 |
| 20260505170443 | 60 | 186 | 7.0 | 16.5 | 0.00 | 0.00 | 0.00 | 76 | 1006.6 |
| 20260505165938 | 60 | 186 | 5.2 | 16.5 | 0.00 | 0.00 | 0.00 | 75 | 1006.5 |
| 20260505165431 | 60 | 215 | 6.1 | 14.8 | 0.00 | 0.00 | 0.00 | 77 | 1006.6 |
| 20260505165146 | 59 | 175 | 6.1 | 14.8 | 0.00 | 0.00 | 0.00 | 78 | 1006.5 |
| 20260505164419 | 58 | 182 | 6.1 | 12.2 | 0.00 | 0.00 | 0.00 | 78 | 1006.6 |
| 20260505163914 | 58 | 178 | 6.1 | 12.2 | 0.00 | 0.00 | 0.00 | 78 | 1006.6 |
| 20260505163407 | 58 | 184 | 7.0 | 18.2 | 0.00 | 0.00 | 0.00 | 79 | 1006.6 |
| 20260505162902 | 58 | 200 | 6.1 | 16.5 | 0.00 | 0.00 | 0.00 | 78 | 1006.8 |
| 20260505162356 | 58 | 227 | 5.2 | 13.0 | 0.00 | 0.00 | 0.00 | 78 | 1006.9 |
| 20260505162109 | 58 | 150 | 5.2 | 13.0 | 0.00 | 0.00 | 0.00 | 78 | 1007.1 |
| 20260505161343 | 58 | 203 | 5.2 | 13.9 | 0.00 | 0.00 | 0.00 | 80 | 1007.2 |
| 20260505161104 | 57 | 144 | 7.0 | 13.9 | 0.00 | 0.00 | 0.00 | 80 | 1007.2 |
| 20260505160335 | 57 | 190 | 7.8 | 20.0 | 0.00 | 0.00 | 0.00 | 79 | 1007.4 |
| 20260505153016 | 58 | 182 | 6.1 | 12.2 | 0.00 | 0.00 | 0.00 | 80 | 1007.7 |
| 20260505152735 | 58 | 172 | 4.3 | 14.8 | 0.00 | 0.00 | 0.00 | 79 | 1007.8 |
| 20260505152237 | 58 | 206 | 3.5 | 14.8 | 0.00 | 0.00 | 0.00 | 79 | 1007.9 |
| 20260505151517 | 57 | 142 | 4.3 | 13.0 | 0.00 | 0.00 | 0.00 | 80 | 1007.7 |
| 20260505151015 | 56 | 208 | 4.3 | 13.0 | 0.00 | 0.00 | 0.00 | 81 | 1007.9 |
| 20260505150515 | 56 | 194 | 4.3 | 13.9 | 0.00 | 0.00 | 0.00 | 82 | 1007.8 |
| 20260505140505 | 55 | 157 | 4.3 | 11.3 | 0.00 | 0.00 | 0.00 | 82 | 1007.5 |
| 20260505140226 | 55 | 186 | 5.2 | 11.3 | 0.00 | 0.00 | 0.00 | 83 | 1007.5 |
| 20260505124937 | 53 | 182 | 6.1 | 13.9 | 0.00 | 0.00 | 0.00 | 84 | 1007.5 |
| 20260505124438 | 53 | 186 | 6.1 | 11.3 | 0.00 | 0.00 | 0.00 | 84 | 1007.5 |
| 20260505123937 | 53 | 211 | 5.2 | 13.0 | 0.00 | 0.00 | 0.00 | 84 | 1007.5 |
| 20260505123439 | 53 | 161 | 5.2 | 14.8 | 0.00 | 0.00 | 0.00 | 84 | 1007.4 |
| 20260505122937 | 53 | 190 | 4.3 | 14.8 | 0.00 | 0.00 | 0.00 | 84 | 1007.6 |
| 20260505122439 | 53 | 245 | 4.3 | 13.9 | 0.00 | 0.00 | 0.00 | 84 | 1007.7 |
| 20260505121939 | 53 | 226 | 4.3 | 13.9 | 0.00 | 0.00 | 0.00 | 84 | 1007.6 |
| 20260505121439 | 53 | 217 | 4.3 | 9.6 | 0.00 | 0.00 | 0.00 | 85 | 1007.5 |
| 20260505121200 | 52 | 226 | 5.2 | 13.0 | 0.00 | 0.00 | 0.00 | 85 | 1007.6 |
| 20260505120701 | 52 | 206 | 5.2 | 13.0 | 0.00 | 0.00 | 0.00 | 85 | 1007.7 |
| 20260505115935 | 52 | 180 | 6.1 | 13.0 | 0.00 | 0.00 | 0.00 | 85 | 1007.8 |
| 20260505115435 | 52 | 170 | 5.2 | 13.0 | 0.00 | 0.00 | 0.00 | 85 | 1007.9 |
| 20260505115153 | 52 | 194 | 5.2 | 14.8 | 0.00 | 0.00 | 0.00 | 85 | 1007.8 |
| 20260505114433 | 52 | 214 | 5.2 | 14.8 | 0.00 | 0.00 | 0.00 | 85 | 1008.0 |
| 20260505113933 | 52 | 212 | 4.3 | 13.9 | 0.00 | 0.00 | 0.00 | 85 | 1008.0 |
| 20260505113434 | 52 | 165 | 5.2 | 12.2 | 0.00 | 0.00 | 0.00 | 85 | 1008.0 |
| 20260505113157 | 51 | 180 | 6.1 | 12.2 | 0.00 | 0.00 | 0.00 | 85 | 1008.0 |
| 20260505112434 | 51 | 164 | 6.1 | 12.2 | 0.00 | 0.00 | 0.00 | 85 | 1008.0 |
| 20260505111931 | 51 | 223 | 5.2 | 12.2 | 0.00 | 0.00 | 0.00 | 86 | 1008.0 |
| 20260505111431 | 51 | 162 | 5.2 | 12.2 | 0.00 | 0.00 | 0.00 | 86 | 1007.9 |
| 20260505110930 | 51 | 171 | 5.2 | 12.2 | 0.00 | 0.00 | 0.00 | 86 | 1007.9 |
| 20260505110432 | 51 | 192 | 4.3 | 13.0 | 0.00 | 0.00 | 0.00 | 86 | 1007.8 |
| 20260505101932 | 50 | 245 | 3.5 | 10.4 | 0.00 | 0.00 | 0.00 | 86 | 1007.9 |
| 20260505101434 | 50 | 194 | 3.5 | 10.4 | 0.00 | 0.00 | 0.00 | 86 | 1007.8 |
| 20260505100931 | 50 | 200 | 2.6 | 9.6 | 0.00 | 0.00 | 0.00 | 86 | 1007.8 |
| 20260505100432 | 50 | 193 | 3.5 | 9.6 | 0.00 | 0.00 | 0.00 | 86 | 1007.8 |
| 20260505095931 | 50 | 159 | 3.5 | 8.7 | 0.00 | 0.00 | 0.00 | 86 | 1007.8 |
| 20260505095431 | 50 | 198 | 3.5 | 8.7 | 0.00 | 0.00 | 0.00 | 86 | 1007.8 |
| 20260505094931 | 50 | 248 | 3.5 | 12.2 | 0.00 | 0.00 | 0.00 | 86 | 1007.8 |
| 20260505094431 | 50 | 219 | 2.6 | 12.2 | 0.00 | 0.00 | 0.00 | 86 | 1007.7 |
| 20260505093931 | 50 | 236 | 3.5 | 8.7 | 0.00 | 0.00 | 0.00 | 86 | 1007.7 |
| 20260505093432 | 50 | 272 | 3.5 | 8.7 | 0.00 | 0.00 | 0.00 | 86 | 1007.7 |
| 20260505092925 | 50 | 216 | 2.6 | 7.8 | 0.00 | 0.00 | 0.00 | 86 | 1007.7 |
| 20260505092421 | 49 | 175 | 2.6 | 6.1 | 0.00 | 0.00 | 0.00 | 87 | 1007.7 |